Other Public Products
Issued by NWS Charleston, SC

Current Version | Previous Version | Graphics & Text | Print | Product List | Glossary On
Versions: 1 2 3 4 5 6 7 8 9 10 11 12 13 14 15 16 17 18 19 20 21 22 23 24 25 26 27 28 29 30 31 32 33 34 35 36 37 38 39 40 41 42 43 44 45 46 47 48 49 50
000 FPUS82 KCHS 201612 OPUCHS TEST...KCHS/KSAV Gateway Observations...TEST National Weather Service Charleston SC 1200 PM EDT SUN MAY 20 2018 NOTE: "fair" indicates few or no clouds below 12,000 feet with no significant weather and/or obstructions to visibility. SCZ050-WAZ558-NCZ071-TXZ119-213-PAZ071-DCZ001-FLZ074-172-MI076- NYZ176-178-MAZ016-IL014-TNZ027-NJZ106-GAZ044-MD014-201700- ...Gateway Observations for Charleston International... CITY SKY/WX TMP DP RH WIND PRES REMARKS Chas Airport PTSUNNY 81 71 71 S6 30.18R Seattle CLOUDY 55 48 77 S7 30.05R Charlotte PTSUNNY 78 71 79 SW6 30.16F Dallas DFW LGT RAIN 68 67 96 VRB3 30.04F Dallas Love LGT RAIN 68 66 93 W5 30.06F Philladelphia PTSUNNY 79 68 69 SW17 29.99S Wash National PTSUNNY 79 69 71 S13G20 30.04S Baltimore PTSUNNY 82 67 60 W15G21 30.01S Miami LGT RAIN 77 74 90 E13 30.08F Detroit CLOUDY 63 54 72 CALM 30.16R Newark PTSUNNY 80 67 64 SW18G28 29.93F Laguardia PTSUNNY 78 66 66 W10 29.92F J F K PTSUNNY 78 69 73 SW18 29.95F Boston Logan PTSUNNY 74 67 78 SW17G25 29.84F Ft. Lauderdale LGT RAIN 78 75 90 SE17 30.08S Chicago O`Hare LGT RAIN 45 41 86 N14 30.23R Chicago Midway CLOUDY 45 43 93 N15 30.23R Houston Bush PTSUNNY 85 73 67 S13 29.99R HX 91 Houston Hobby PTSUNNY 83 74 74 S13 29.99R Nashville FAIR 85 65 51 VRB3 30.14S Atlanta PTSUNNY 83 70 64 CALM 30.16S $$ GAZ044-118-TXZ119-213-NCZ071-DCZ001-MDZ014-506-PAZ021-071-NJZ106- NYZ176-178-MAZ106-OHZ011-021-055-MIZ076-KYZ091-ILZ014-INZ047- MNZ060-ONZ431-201700- ...Gateway Observations for Savannah International... CITY SKY/WX TMP DP RH WIND PRES REMARKS Savannah Arpt CLOUDY 79 69 71 S5 30.18R Atlanta PTSUNNY 83 70 64 CALM 30.16S Charlotte PTSUNNY 78 71 79 SW6 30.16F Dallas DFW LGT RAIN 68 67 96 VRB3 30.04F Houston Bush PTSUNNY 85 73 67 S13 29.99R HX 91 Wash National PTSUNNY 79 69 71 S13G20 30.04S Wash Dulles PTSUNNY 81 69 67 W9 30.04S Baltimore PTSUNNY 82 67 60 W15G21 30.01S Philadelphia PTSUNNY 79 68 69 SW17 29.99S Newark PTSUNNY 80 67 64 SW18G28 29.93F Laguardia PTSUNNY 78 66 66 W10 29.92F J F K PTSUNNY 78 69 73 SW18 29.95F Boston PTSUNNY 74 67 78 SW17G25 29.84F Pittsburg CLOUDY 70 62 76 W10 30.09R Akron CLOUDY 68 58 70 NW5 30.11S Cleveland CLOUDY 57 53 86 N12 30.18R Cincinnati PTSUNNY 80 65 59 W5 30.12R Columbus FAIR 72 63 74 MISG 30.11R Detroit CLOUDY 63 54 72 CALM 30.16R Chicago O`Hare LGT RAIN 45 41 86 N14 30.23R Minneapolis PTSUNNY 58 40 51 E9 30.24F Indianapolis PTSUNNY 77 66 68 W7 30.12R Toronto Canada MOSUNNY 64 54 68 N9 30.08R $$

USA.gov is the U.S. government's official web portal to all federal, state and local government web resources and services.